User: anonymous   Login
Location: Unspecified
(0.0000°N, 0.0000°E)
Time: 01:01:17
(UTC+00:00)
Language:

OAO 1 - Orbit

View from above orbital plane
View from above orbital plane
View from above satellite
View from above satellite

Ground track
Ground track

The orbit data is extracted from the following two-line orbital elements,

1 02142U 66031A   21023.46116013  .00000025  00000-0  15782-4 0  9999
2 02142  35.0460 295.0471 0007339 325.8638  34.1577 14.33894830868006
Epoch (UTC): 23 January 2021 11:04:04
Eccentricity: 0.0007339
inclination: 35.0460°
perigee height: 773 km
apogee height: 784 km
right ascension of ascending node: 295.0471°
argument of perigee: 325.8638°
revolutions per day: 14.33894830
mean anomaly at epoch: 34.1577°
orbit number at epoch: 86800

The dashed part of the orbit path shows where the satellite is in the earth's shadow,  

DLR